{"data":{"norad_id":52157,"epoch":"2026-05-25T03:59:24.724032Z","epoch_age_seconds":67513,"freshness":"FRESH","line1":"1 52157U 22033A   26145.16625838  .00001691  00000+0  21629-3 0  9996","line2":"2 52157  97.8396 224.7921 0005298  16.5838 343.5548 14.82645979224045","mean_motion":14.82645979,"eccentricity":0.0005298,"inclination_deg":97.8396,"raan_deg":224.7921,"arg_perigee_deg":16.5838,"mean_anomaly_deg":343.5548,"bstar":0.00021629,"rev_number":22404,"period_min":97.123657325887,"perigee_km":617.27635398383,"apogee_km":624.69262311309,"semimajor_km":6999.1214885485,"source":"CELESTRAK","updated_at":"2026-05-25T13:37:57.648721Z"}}